El Dorado, AR

5:14 PM CDT on September 20, 2017 (GMT -0500)
South Arkansas Regional At Goodwin

Weather History for KELD - May, 2013

Change the Weather History Date:

Monday, May 20, 2013

  Actual Average Record
Temperature  
Mean Temperature 81 °F 72 °F  
Max Temperature 89 °F 83 °F 97 °F (1937)
Min Temperature 72 °F 61 °F 48 °F (1968)
Degree Days  
Heating Degree Days 0 0  
Month to date heating degree days 61 16  
Since 1 July heating degree days 2712 2670  
Cooling Degree Days 16 8  
Month to date cooling degree days 83 114  
Year to date cooling degree days 162 213  
Growing Degree Days 30 (Base 50)    
Moisture  
Dew Point 71 °F    
Average Humidity 76    
Maximum Humidity 93    
Minimum Humidity 59    
Precipitation  
Precipitation 0.00 in 0.17 in 2.15 in (1955)
Month to date precipitation 1.67 3.28  
Year to date precipitation 15.70 21.21  
Snow  
Snow 0.00 in - - ()
Month to date snowfall 0.0  
Since 1 July snowfall 0.1  
Snow Depth 0.00 in    
Sea Level Pressure  
Sea Level Pressure 29.87 in    
Wind  
Wind Speed 10 mph (SSE)    
Max Wind Speed 22 mph    
Max Gust Speed 29 mph    
Visibility 10 miles    
Events      
T = Trace of Precipitation, MM = Missing Value Source: NWS Daily Summary

Daily Weather History Graph

Daily Weather History Graph

Search for Another Location

Airport or City:

Trip Planner

Search our weather history database for the weather conditions in past years. The results will help you decide how hot, cold, wet, or windy it might be!

Date:

Astronomy

May. 20, 2013 Rise Set
Actual Time 6:08 AM CDT 8:07 PM CDT
Civil Twilight 5:40 AM CDT 8:35 PM CDT
Nautical Twilight 5:06 AM CDT 9:09 PM CDT
Astronomical Twilight 4:30 AM CDT 9:45 PM CDT
Moon 3:29 PM CDT 2:48 AM CDT
Length of Visible Light 14h 55m
Length of Day
13h 59m
Waxing Gibbous, 75% of the Moon is Illuminated
May 20
Waxing Gibbous
May 24
Full
May 31
Last Quarter
Jun 8
New
Jun 16
First Quarter

Hourly Weather History & Observations

Time (CDT) Temp. Heat Index Dew Point Humidity Pressure Visibility Wind Dir Wind Speed Gust Speed Precip Events Conditions
12:53 AM 73.9 °F - 69.1 °F 85% 29.88 in 10.0 mi SSE 5.8 mph - N/A   Scattered Clouds
1:01 AM 73.4 °F - 69.8 °F 88% 29.89 in 10.0 mi SSE 9.2 mph - N/A   Mostly Cloudy
1:15 AM 75.2 °F - 69.8 °F 83% 29.88 in 10.0 mi SSE 10.4 mph - N/A   Overcast
1:53 AM 73.9 °F - 69.1 °F 85% 29.87 in 10.0 mi SSE 6.9 mph - N/A   Overcast
2:53 AM 75.0 °F - 70.0 °F 84% 29.87 in 10.0 mi South 5.8 mph - N/A   Overcast
3:53 AM 73.9 °F - 70.0 °F 87% 29.86 in 10.0 mi South 6.9 mph - N/A   Mostly Cloudy
4:29 AM 73.4 °F - 69.8 °F 88% 29.87 in 10.0 mi SSE 6.9 mph - N/A   Mostly Cloudy
4:45 AM 73.4 °F - 69.8 °F 88% 29.88 in 10.0 mi South 5.8 mph - N/A   Scattered Clouds
4:53 AM 73.0 °F - 70.0 °F 90% 29.87 in 10.0 mi SSE 5.8 mph - N/A   Mostly Cloudy
5:53 AM 71.6 °F - 69.8 °F 94% 29.90 in 10.0 mi SE 5.8 mph - N/A   Clear
6:50 AM 73.4 °F - 71.6 °F 94% 29.92 in 8.0 mi SE 6.9 mph - N/A   Mostly Cloudy
6:53 AM 73.4 °F - 71.6 °F 94% 29.92 in 8.0 mi SE 5.8 mph - N/A   Mostly Cloudy
7:11 AM 73.4 °F - 71.6 °F 94% 29.92 in 8.0 mi SE 6.9 mph - N/A   Scattered Clouds
7:53 AM 75.0 °F - 71.1 °F 87% 29.91 in 10.0 mi SSE 10.4 mph - N/A   Partly Cloudy
8:22 AM 75.2 °F - 71.6 °F 89% 29.93 in 10.0 mi SSE 11.5 mph 18.4 mph N/A   Mostly Cloudy
8:53 AM 78.1 °F - 71.1 °F 79% 29.92 in 10.0 mi SSE 12.7 mph 18.4 mph N/A   Overcast
9:53 AM 79.0 °F - 71.1 °F 77% 29.92 in 10.0 mi South 13.8 mph 25.3 mph N/A   Overcast
10:53 AM 82.9 °F 87.5 °F 71.1 °F 67% 29.92 in 10.0 mi South 15.0 mph 21.9 mph N/A   Mostly Cloudy
11:53 AM 84.0 °F 89.6 °F 72.0 °F 67% 29.91 in 10.0 mi South 12.7 mph 21.9 mph N/A   Mostly Cloudy
12:53 PM 84.9 °F 90.1 °F 71.1 °F 63% 29.90 in 10.0 mi South 17.3 mph - N/A   Mostly Cloudy
1:53 PM 86.0 °F 91.5 °F 71.1 °F 61% 29.88 in 10.0 mi South 15.0 mph 20.7 mph N/A   Mostly Cloudy
2:53 PM 87.1 °F 93.6 °F 72.0 °F 61% 29.86 in 10.0 mi South 17.3 mph 23.0 mph N/A   Partly Cloudy
3:53 PM 87.1 °F 92.8 °F 71.1 °F 59% 29.84 in 10.0 mi South 15.0 mph 23.0 mph N/A   Clear
4:53 PM 88.0 °F 93.8 °F 71.1 °F 57% 29.81 in 10.0 mi South 10.4 mph - N/A   Partly Cloudy
5:53 PM 87.1 °F 92.8 °F 71.1 °F 59% 29.79 in 10.0 mi SSE 15.0 mph 18.4 mph N/A   Clear
6:53 PM 86.0 °F 91.5 °F 71.1 °F 61% 29.79 in 10.0 mi SSE 10.4 mph - N/A   Scattered Clouds
7:53 PM 82.0 °F 85.9 °F 70.0 °F 67% 29.80 in 10.0 mi SSE 5.8 mph - N/A   Partly Cloudy
8:53 PM 80.6 °F 83.9 °F 69.8 °F 70% 29.82 in 10.0 mi South 6.9 mph - N/A   Clear
9:53 PM 80.1 °F 83.6 °F 71.1 °F 74% 29.84 in 10.0 mi SSE 6.9 mph - N/A   Clear
10:53 PM 79.0 °F - 70.0 °F 74% 29.85 in 10.0 mi SSE 9.2 mph - N/A   Clear
11:53 PM 77.0 °F - 70.0 °F 79% 29.86 in 10.0 mi South 5.8 mph - N/A   Clear